EW4271 Weather Reports


Display with metric or nautical units.
time (UTC)temp
F
wind
direction
speed
MPH
gust
MPH
rain 1hr
in
rain 24hr
in
rain mn
in
humidity
%
barometer
mb
20260906223515 87 275 1.0 3.0 0.00 0.00 0.00 22 1022.9
20260906223029 87 48 1.0 4.0 0.00 0.00 0.00 22 1023.0
20260906222543 87 309 2.0 4.0 0.00 0.00 0.00 22 1023.1
20260906222016 87 327 1.0 3.0 0.00 0.00 0.00 24 1023.2
20260906221510 87 51 1.0 3.0 0.00 0.00 0.00 24 1023.2
20260906221025 87 244 0.0 4.0 0.00 0.00 0.00 23 1023.3
20260906220522 87 197 1.0 3.0 0.00 0.00 0.00 22 1023.4
20260906220016 87 126 1.0 6.0 0.00 0.00 0.00 21 1023.4
20260906215510 87 225 2.0 6.0 0.00 0.00 0.00 22 1023.5
20260906215044 87 150 2.0 5.0 0.00 0.00 0.00 22 1023.5
20260906214517 86 131 1.0 4.0 0.00 0.00 0.00 24 1023.6
20260906214010 85 58 1.0 4.0 0.00 0.00 0.00 23 1023.7
20260906213546 86 331 2.0 6.0 0.00 0.00 0.00 23 1023.8
20260906213019 85 117 2.0 6.0 0.00 0.00 0.00 24 1024.0
20260906212532 84 76 1.0 4.0 0.00 0.00 0.00 25 1024.1
20260906212010 84 42 2.0 4.0 0.00 0.00 0.00 26 1024.1
20260906211523 83 136 0.0 4.0 0.00 0.00 0.00 25 1024.2
20260906211037 83 57 2.0 4.0 0.00 0.00 0.00 25 1024.2
20260906210510 83 57 3.0 5.0 0.00 0.00 0.00 25 1024.3
20260906210025 84 55 2.0 5.0 0.00 0.00 0.00 26 1024.4
20260906205520 84 34 1.0 4.0 0.00 0.00 0.00 26 1024.5
20260906205014 84 128 2.0 5.0 0.00 0.00 0.00 24 1024.6
20260906204527 84 261 2.0 5.0 0.00 0.00 0.00 24 1024.7
20260906204043 84 158 1.0 3.0 0.00 0.00 0.00 25 1024.7
20260906203520 84 63 1.0 3.0 0.00 0.00 0.00 27 1024.7
20260906203014 84 43 2.0 4.0 0.00 0.11 0.00 26 1024.8
20260906202509 84 244 2.0 8.0 0.00 0.11 0.00 25 1024.9
20260906202042 84 151 3.0 8.0 0.00 0.11 0.00 25 1025.0
20260906201516 84 218 3.0 5.0 0.00 0.11 0.00 24 1025.0
20260906201010 84 125 2.0 4.0 0.00 0.11 0.00 24 1025.0
20260906200523 85 47 1.0 4.0 0.00 0.11 0.00 25 1025.1
20260906200018 85 265 2.0 4.0 0.00 0.11 0.00 24 1025.3
20260906195515 85 207 3.0 4.0 0.00 0.11 0.00 24 1025.3
20260906195028 84 158 2.0 8.0 0.00 0.11 0.00 24 1025.3
20260906194523 84 280 2.0 8.0 0.00 0.11 0.00 26 1025.3
20260906194017 83 78 3.0 6.0 0.00 0.11 0.00 26 1025.4
20260906193512 83 144 3.0 5.0 0.00 0.11 0.00 26 1025.5
20260906193025 82 121 1.0 6.0 0.00 0.11 0.00 28 1025.5
20260906192519 82 146 2.0 5.0 0.00 0.11 0.00 26 1025.6
20260906192012 82 35 2.0 4.0 0.00 0.11 0.00 27 1025.7
20260906191510 81 95 1.0 8.0 0.00 0.11 0.00 27 1025.7
20260906191044 81 160 3.0 8.0 0.00 0.11 0.00 28 1025.8
20260906190517 81 9 3.0 5.0 0.00 0.11 0.00 28 1025.8
20260906190010 81 36 2.0 7.0 0.00 0.11 0.00 27 1025.9
20260906185524 80 132 3.0 6.0 0.00 0.11 0.00 29 1026.0
20260906185039 80 34 3.0 8.0 0.00 0.11 0.00 28 1026.0
20260906184513 80 16 3.0 8.0 0.00 0.11 0.00 26 1026.2
20260906184027 81 81 2.0 5.0 0.00 0.11 0.00 27 1026.2
20260906183520 80 71 2.0 4.0 0.00 0.11 0.00 28 1026.4
20260906183019 80 44 1.0 6.0 0.00 0.11 0.00 29 1026.5
20260906182534 80 58 4.0 6.0 0.00 0.11 0.00 29 1026.5
20260906182028 80 28 2.0 8.0 0.00 0.11 0.00 27 1026.6
20260906181521 81 98 3.0 8.0 0.00 0.11 0.00 31 1026.7
20260906181016 80 226 2.0 6.0 0.00 0.11 0.00 28 1026.8
20260906180509 80 144 1.0 6.0 0.00 0.11 0.00 30 1026.8
20260906180023 80 144 2.0 6.0 0.00 0.11 0.00 33 1026.9
20260906175517 80 24 2.0 5.0 0.00 0.11 0.00 31 1026.8
20260906175032 79 107 1.0 5.0 0.00 0.11 0.00 31 1026.9
20260906174529 79 146 3.0 6.0 0.00 0.11 0.00 32 1027.0
20260906174022 78 69 0.0 6.0 0.00 0.11 0.00 33 1027.0
20260906173516 78 11 2.0 7.0 0.00 0.11 0.00 32 1027.1
20260906173010 78 209 4.0 7.0 0.00 0.11 0.00 32 1027.1
20260906172524 78 186 2.0 4.0 0.00 0.11 0.00 33 1027.2
20260906172039 77 156 0.0 4.0 0.00 0.11 0.00 34 1027.2
20260906171511 77 140 1.0 3.0 0.00 0.11 0.00 34 1027.4
20260906171026 77 119 2.0 3.0 0.00 0.11 0.00 35 1027.4
20260906170524 77 180 2.0 5.0 0.00 0.11 0.00 34 1027.4
20260906170018 77 30 2.0 5.0 0.00 0.11 0.00 34 1027.4
20260906165533 77 144 2.0 5.0 0.00 0.11 0.00 36 1027.4
20260906165026 77 124 1.0 3.0 0.00 0.11 0.00 37 1027.4
20260906164539 76 124 1.0 3.0 0.00 0.11 0.00 35 1027.5
20260906164012 76 108 2.0 5.0 0.00 0.11 0.00 37 1027.5
20260906163527 76 168 2.0 5.0 0.00 0.11 0.00 38 1027.5
20260906163041 76 167 2.0 4.0 0.00 0.11 0.00 38 1027.5
20260906162513 75 138 2.0 4.0 0.00 0.11 0.00 41 1027.5
20260906162028 75 111 2.0 6.0 0.00 0.11 0.00 39 1027.5
20260906161525 75 161 3.0 6.0 0.00 0.11 0.00 40 1027.5
20260906161039 74 127 1.0 3.0 0.00 0.11 0.00 40 1027.5
20260906160512 74 152 1.0 5.0 0.00 0.11 0.00 42 1027.4
20260906160026 74 152 1.0 5.0 0.00 0.11 0.00 45 1027.4
20260906155520 73 151 0.0 4.0 0.00 0.11 0.00 45 1027.4
20260906155013 73 141 1.0 4.0 0.00 0.11 0.00 45 1027.4
20260906154528 72 141 2.0 5.0 0.00 0.11 0.00 43 1027.4
20260906154022 72 149 2.0 5.0 0.00 0.11 0.00 45 1027.4
20260906153520 72 178 2.0 3.0 0.00 0.11 0.00 45 1027.4
20260906153014 71 159 0.0 0.0 0.00 0.11 0.00 46 1027.4
20260906152509 71 159 0.0 2.0 0.00 0.11 0.00 47 1027.4
20260906152022 70 159 1.0 2.0 0.00 0.11 0.00 49 1027.4
20260906151517 69 159 1.0 5.0 0.00 0.11 0.00 50 1027.5
20260906151012 68 169 2.0 3.0 0.00 0.11 0.00 52 1027.4
20260906150526 67 169 0.0 0.0 0.00 0.11 0.00 56 1027.4
20260906150041 65 169 0.0 1.0 0.00 0.11 0.00 63 1027.5
20260906145518 64 169 0.0 1.0 0.00 0.11 0.00 65 1027.4
20260906145012 63 169 0.0 0.0 0.00 0.11 0.00 67 1027.4
20260906144547 61 169 0.0 0.0 0.00 0.11 0.00 74 1027.3
20260906144040 60 169 0.0 0.0 0.00 0.11 0.00 77 1027.3
20260906143513 59 169 0.0 0.0 0.00 0.11 0.00 80 1027.1
20260906143049 58 169 0.0 0.0 0.00 0.11 0.00 80 1027.1
20260906142522 57 169 0.0 0.0 0.00 0.11 0.00 82 1027.1
20260906142016 56 169 0.0 0.0 0.00 0.11 0.00 80 1027.0
20260906141531 55 169 0.0 0.0 0.00 0.11 0.00 81 1027.1
20260906141024 55 169 0.0 0.0 0.00 0.11 0.00 81 1027.1
20260906140522 54 169 0.0 0.0 0.00 0.11 0.00 81 1027.1
20260906140015 54 169 0.0 0.0 0.00 0.11 0.00 80 1027.1
20260906135530 54 169 0.0 0.0 0.00 0.11 0.00 80 1027.1
20260906135023 54 169 0.0 0.0 0.00 0.11 0.00 81 1027.0
20260906134517 53 169 0.0 0.0 0.00 0.11 0.00 80 1027.0
20260906134011 53 169 0.0 0.0 0.00 0.11 0.00 79 1026.9
20260906133524 53 169 0.0 0.0 0.00 0.11 0.00 80 1026.8
20260906133017 53 169 0.0 0.0 0.00 0.11 0.00 80 1026.9
20260906132511 53 169 0.0 0.0 0.00 0.11 0.00 79 1026.7
20260906132047 53 169 0.0 0.0 0.00 0.11 0.00 80 1026.7
20260906131521 53 169 0.0 0.0 0.00 0.11 0.00 78 1026.7
20260906131015 53 169 0.0 0.0 0.00 0.11 0.00 78 1026.7
20260906130509 53 169 0.0 0.0 0.00 0.11 0.00 78 1026.6
20260906130023 53 169 0.0 0.0 0.00 0.11 0.00 78 1026.5
20260906125538 53 169 0.0 0.0 0.00 0.11 0.00 79 1026.5
20260906125010 53 169 0.0 0.0 0.00 0.11 0.00 79 1026.4
20260906124524 53 169 0.0 0.0 0.00 0.11 0.00 78 1026.4
20260906124018 53 169 0.0 0.0 0.00 0.11 0.00 78 1026.4
20260906123512 53 169 0.0 0.0 0.00 0.11 0.00 79 1026.4
20260906123011 53 169 0.0 0.0 0.00 0.11 0.00 79 1026.4
20260906122524 53 169 0.0 0.0 0.00 0.11 0.00 79 1026.3
20260906122018 53 169 0.0 0.0 0.00 0.11 0.00 78 1026.4
20260906121513 53 169 0.0 0.0 0.00 0.11 0.00 78 1026.4
20260906121026 53 169 0.0 0.0 0.00 0.11 0.00 78 1026.4
20260906120542 54 169 0.0 0.0 0.00 0.11 0.00 79 1026.4
20260906120014 54 169 0.0 0.0 0.00 0.11 0.00 78 1026.4
20260906115528 54 169 0.0 0.0 0.00 0.11 0.00 78 1026.4
20260906115026 54 169 0.0 0.0 0.00 0.11 0.00 79 1026.5
20260906114520 54 169 0.0 0.0 0.00 0.11 0.00 77 1026.5
20260906114014 54 169 0.0 0.0 0.00 0.11 0.00 77 1026.5
20260906113528 54 169 0.0 0.0 0.00 0.11 0.00 78 1026.5
20260906113022 54 169 0.0 0.0 0.00 0.11 0.00 78 1026.5
20260906112516 54 169 0.0 0.0 0.00 0.11 0.00 78 1026.4
20260906112009 54 169 0.0 0.0 0.00 0.11 0.00 77 1026.4
20260906111521 54 169 0.0 0.0 0.00 0.11 0.00 77 1026.4
20260906111014 54 169 0.0 0.0 0.00 0.11 0.00 75 1026.4
20260906110526 54 169 0.0 0.0 0.00 0.11 0.00 77 1026.3
20260906110024 54 169 0.0 0.0 0.00 0.11 0.00 77 1026.4
20260906105518 54 169 0.0 0.0 0.00 0.11 0.00 75 1026.4
20260906105033 55 169 0.0 0.0 0.00 0.11 0.00 77 1026.4
20260906104547 55 169 0.0 0.0 0.00 0.11 0.00 77 1026.3
20260906104021 55 169 0.0 0.0 0.00 0.11 0.00 75 1026.4
20260906103514 55 169 0.0 0.0 0.00 0.11 0.00 75 1026.4
20260906102521 55 169 0.0 0.0 0.00 0.11 0.00 73 1026.3
20260906102015 55 169 0.0 0.0 0.00 0.11 0.00 74 1026.1
20260906101513 56 169 0.0 0.0 0.00 0.11 0.00 74 1026.0
20260906101028 56 169 0.0 0.0 0.00 0.11 0.00 75 1026.0
20260906100521 56 169 0.0 0.0 0.00 0.11 0.00 73 1026.0
20260906100014 56 169 0.0 0.0 0.00 0.11 0.00 74 1026.0
20260906095528 56 169 0.0 0.0 0.00 0.11 0.00 74 1026.0
20260906095022 57 169 0.0 0.0 0.00 0.11 0.00 72 1025.9
20260906094537 56 169 0.0 0.0 0.00 0.11 0.00 73 1026.0
20260906094010 57 169 0.0 0.0 0.00 0.11 0.00 74 1026.0
20260906093525 57 169 0.0 0.0 0.00 0.11 0.00 74 1026.0
20260906093039 57 169 0.0 0.0 0.00 0.11 0.00 75 1025.8
20260906092516 57 169 0.0 0.0 0.00 0.11 0.00 73 1025.7
20260906092009 57 169 0.0 0.0 0.00 0.11 0.00 73 1025.7
20260906091523 57 169 0.0 0.0 0.00 0.11 0.00 71 1025.7
20260906091016 57 169 0.0 0.0 0.00 0.11 0.00 73 1025.7
20260906090510 57 169 0.0 0.0 0.00 0.11 0.00 73 1025.7
20260906090024 57 169 0.0 0.0 0.00 0.11 0.00 74 1025.7
20260906085518 57 169 0.0 0.0 0.00 0.11 0.00 72 1025.7
20260906085011 57 169 0.0 0.0 0.00 0.11 0.00 73 1025.7
20260906084529 57 169 0.0 0.0 0.00 0.11 0.00 73 1025.7
20260906084023 57 169 0.0 0.0 0.00 0.11 0.00 73 1025.8
20260906083518 57 169 0.0 0.0 0.00 0.11 0.00 73 1025.9
20260906083012 57 169 0.0 0.0 0.00 0.11 0.00 73 1025.9
20260906082526 57 51 0.0 0.0 0.00 0.11 0.00 75 1025.9
20260906082019 57 51 0.0 0.0 0.00 0.11 0.00 74 1025.9
20260906081512 57 51 0.0 0.0 0.00 0.11 0.00 75 1025.9
20260906081026 57 51 0.0 0.0 0.00 0.11 0.00 74 1026.0
20260906080520 57 51 0.0 0.0 0.00 0.11 0.00 74 1026.0
20260906080019 57 51 0.0 0.0 0.00 0.11 0.00 74 1026.0
20260906075513 57 51 0.0 0.0 0.00 0.11 0.00 73 1026.1
20260906075028 57 51 0.0 0.0 0.00 0.11 0.00 74 1026.1
20260906074523 57 51 0.0 0.0 0.00 0.11 0.00 73 1026.2
20260906074016 57 51 0.0 0.0 0.00 0.11 0.00 73 1026.2
20260906073511 57 51 0.0 0.0 0.00 0.11 0.00 71 1026.2
20260906073025 58 51 0.0 0.0 0.00 0.11 0.00 72 1026.2
20260906072524 58 51 0.0 0.0 0.00 0.11 0.00 70 1026.2
20260906072018 58 51 0.0 0.0 0.00 0.11 0.00 72 1026.4
20260906071511 58 51 0.0 0.0 0.00 0.11 0.00 71 1026.4
20260906071025 58 51 0.0 0.0 0.00 0.11 0.00 71 1026.4
20260906070540 58 51 0.0 0.0 0.00 0.11 0.00 72 1026.5
20260906070013 59 51 0.0 0.0 0.00 0.11 0.00 69 1026.5
20260906065527 59 51 0.0 0.0 0.00 0.11 0.00 70 1026.6
20260906065021 59 51 0.0 0.0 0.00 0.11 0.00 70 1026.5
20260906064535 59 51 0.0 0.0 0.00 0.11 0.00 68 1026.5
20260906064030 59 51 0.0 0.0 0.00 0.11 0.00 70 1026.5
20260906063527 60 51 0.0 0.0 0.00 0.11 0.00 67 1026.5
20260906063021 60 51 0.0 0.0 0.00 0.11 0.11 68 1026.5
20260906062514 60 51 0.0 0.0 0.00 0.11 0.11 69 1026.5
20260906062049 60 51 0.0 0.0 0.00 0.11 0.11 68 1026.5
20260906061522 60 51 0.0 0.0 0.00 0.11 0.11 68 1026.4
20260906061016 61 51 0.0 0.0 0.00 0.11 0.11 65 1026.5
20260906060511 61 51 0.0 0.0 0.00 0.11 0.11 65 1026.4
20260906060045 61 51 0.0 0.0 0.00 0.11 0.11 68 1026.4
20260906055518 62 51 0.0 0.0 0.00 0.11 0.11 66 1026.4
20260906055033 62 51 0.0 0.0 0.00 0.11 0.11 63 1026.4
20260906054510 62 51 0.0 0.0 0.00 0.11 0.11 63 1026.4
20260906054023 62 51 0.0 0.0 0.00 0.11 0.11 64 1026.4
20260906053516 63 51 0.0 0.0 0.00 0.11 0.11 63 1026.3
20260906053010 64 51 0.0 0.0 0.00 0.11 0.11 63 1026.4
20260906052524 64 51 0.0 0.0 0.00 0.11 0.11 61 1026.4
20260906052019 65 51 0.0 0.0 0.00 0.11 0.11 62 1026.2
20260906051512 65 51 0.0 0.0 0.00 0.11 0.11 57 1026.2
20260906051026 66 51 0.0 0.0 0.00 0.11 0.11 58 1026.2
20260906050523 66 51 0.0 0.0 0.00 0.11 0.11 58 1026.1
20260906050017 67 51 0.0 0.0 0.00 0.11 0.11 53 1026.1
20260906045511 68 51 0.0 0.0 0.00 0.11 0.11 54 1026.0
20260906045024 69 51 0.0 0.0 0.00 0.11 0.11 51 1026.0
20260906044518 69 51 0.0 0.0 0.00 0.11 0.11 49 1025.9
20260906044032 70 51 0.0 0.0 0.00 0.11 0.11 48 1026.0
20260906043545 71 51 0.0 5.0 0.00 0.11 0.11 44 1026.0
20260906043018 71 51 0.0 5.0 0.00 0.11 0.11 43 1025.8
20260906042511 71 46 2.0 3.0 0.00 0.11 0.11 41 1025.7
20260906042009 72 215 1.0 2.0 0.00 0.11 0.11 41 1025.6
20260906041522 72 310 0.0 8.0 0.00 0.11 0.11 42 1025.5
20260906041016 72 5 2.0 8.0 0.00 0.11 0.11 39 1025.5
20260906040510 72 300 2.0 7.0 0.00 0.11 0.11 40 1025.5
20260906040022 72 43 2.0 10.0 0.00 0.11 0.11 40 1025.5
20260906035517 72 289 3.0 10.0 0.00 0.11 0.11 39 1025.5
20260906035011 72 81 1.0 4.0 0.00 0.11 0.11 40 1025.4
20260906034525 72 346 1.0 4.0 0.00 0.11 0.11 40 1025.4
20260906034022 72 299 1.0 3.0 0.00 0.11 0.11 40 1025.4
20260906033516 73 309 1.0 7.0 0.00 0.11 0.11 40 1025.4
20260906033009 72 259 2.0 8.0 0.00 0.11 0.11 40 1025.3
20260906032523 72 286 2.0 8.0 0.00 0.11 0.11 40 1025.3
20260906032018 72 286 2.0 4.0 0.00 0.11 0.11 42 1025.3
20260906031511 72 280 1.0 5.0 0.00 0.11 0.11 40 1025.2
20260906031025 72 244 1.0 5.0 0.00 0.11 0.11 40 1025.2
20260906030519 72 219 2.0 4.0 0.00 0.11 0.11 41 1025.1
20260906030016 72 286 1.0 3.0 0.00 0.11 0.11 42 1025.0
20260906025510 72 43 0.0 4.0 0.00 0.11 0.11 41 1025.0
20260906025023 72 43 1.0 4.0 0.00 0.11 0.11 41 1025.0
20260906024518 72 48 1.0 3.0 0.00 0.11 0.11 43 1024.9
20260906024012 72 314 1.0 4.0 0.00 0.11 0.11 42 1024.8
20260906023546 71 318 1.0 4.0 0.00 0.11 0.11 44 1024.7
20260906023018 70 350 0.0 3.0 0.00 0.11 0.11 44 1024.7
20260906022512 70 350 1.0 3.0 0.00 0.11 0.11 47 1024.6
20260906022009 69 350 1.0 3.0 0.00 0.11 0.11 47 1024.7
20260906021522 69 308 1.0 2.0 0.00 0.11 0.11 52 1024.7
20260906021016 69 308 1.0 2.0 0.00 0.11 0.11 53 1024.7
20260906020509 69 294 1.0 2.0 0.00 0.11 0.11 52 1024.7
20260906020022 69 294 0.0 2.0 0.00 0.11 0.11 57 1024.6
20260906015535 69 49 0.0 0.0 0.00 0.11 0.11 57 1024.6
20260906015009 69 49 0.0 0.0 0.00 0.11 0.11 58 1024.6
20260906014522 69 49 0.0 0.0 0.00 0.11 0.11 58 1024.6
20260906014016 69 49 0.0 2.0 0.00 0.11 0.11 60 1024.6
20260906013514 70 49 0.0 2.0 0.00 0.11 0.11 58 1024.5
20260906013048 70 49 0.0 0.0 0.00 0.11 0.11 57 1024.5
20260906012541 71 49 0.0 0.0 0.00 0.11 0.11 58 1024.5
20260906012034 71 49 0.0 0.0 0.00 0.11 0.11 57 1024.5
20260906011527 72 49 0.0 0.0 0.00 0.11 0.11 57 1024.5
20260906011020 72 49 0.0 0.0 0.00 0.11 0.11 58 1024.6
20260906010514 73 49 0.0 0.0 0.00 0.11 0.11 61 1024.5
20260906010047 73 49 0.0 0.0 0.00 0.11 0.11 61 1024.4
20260906005517 73 49 0.0 0.0 0.00 0.11 0.11 59 1024.5
20260906005029 74 49 0.0 0.0 0.00 0.11 0.11 60 1024.5
20260906004526 74 49 0.0 0.0 0.00 0.11 0.11 58 1024.4
20260906004020 74 49 0.0 0.0 0.00 0.11 0.11 55 1024.4
20260906003514 75 49 0.0 0.0 0.00 0.11 0.11 52 1024.4
20260906003027 75 49 0.0 0.0 0.00 0.11 0.11 52 1024.4
20260906002521 75 49 0.0 0.0 0.00 0.11 0.11 50 1024.4
20260906002015 76 49 0.0 0.0 0.00 0.11 0.11 49 1024.4
20260906001549 76 49 0.0 0.0 0.00 0.11 0.11 48 1024.4
20260906001022 76 49 0.0 0.0 0.00 0.11 0.11 49 1024.3
20260906000520 76 49 0.0 0.0 0.00 0.11 0.11 47 1024.3
20260906000013 76 49 0.0 0.0 0.00 0.11 0.11 48 1024.3
20260905235527 77 49 0.0 0.0 0.00 0.11 0.11 48 1024.1
20260905235020 77 49 0.0 0.0 0.00 0.11 0.11 48 1024.3
20260905234515 77 49 0.0 0.0 0.00 0.11 0.11 47 1024.3
20260905234028 77 49 0.0 0.0 0.00 0.11 0.11 48 1024.3
20260905233522 77 49 0.0 0.0 0.00 0.11 0.11 49 1024.3
20260905233015 77 49 0.0 0.0 0.00 0.11 0.11 49 1024.3
20260905232513 77 49 0.0 0.0 0.00 0.11 0.11 49 1024.3
20260905232026 77 49 0.0 0.0 0.00 0.11 0.11 45 1024.3
20260905231541 77 49 0.0 2.0 0.00 0.11 0.11 44 1024.4
20260905231113 78 49 0.0 3.0 0.00 0.11 0.11 45 1024.3
20260905230607 78 49 1.0 4.0 0.00 0.11 0.11 42 1024.4
20260905230120 78 57 3.0 5.0 0.00 0.11 0.11 41 1024.5
20260905225615 78 46 2.0 3.0 0.00 0.11 0.11 45 1024.4
20260905225129 78 157 0.0 3.0 0.00 0.11 0.11 44 1024.5
20260905224621 77 160 0.0 4.0 0.00 0.11 0.11 48 1024.5
20260905224115 77 56 2.0 4.0 0.00 0.11 0.11 46 1024.6